Probability
0 0 0 0 0 0 0 0 0 0 0 0 0 0 0 0 0 0 0 0 0 0 0 0 0 0 0 0 0 0 0 0 0 0 0 0 0 0 0 0 0 0 0 0
0 0 0 0 0 0 0 0 0 0 0 0 0 0 0 0 0 0 0 0 0 0 0 0 0 0 0 0 0 0 0 0 0 0 0 0 0 0 0 0 0 0 0 0
0 0 0 0 0 0 0 0 0 0 0 0 0 0 0 0 0 0 0 0 0 0 0 0 0 0 0 0 0 0 0 0 0 0 0 0 0 0 0 0 0 0 0 0
0 0 0 0 0 0 0 0 0 0 0 0 0 0 0 0 0 0 0 0 0 0 0 0 0 0 0 0 0 0 0 0 0 0 0 0 0 0 0 0 0 0 0 0
0 0 0 0 0 0 0 0 0 0 0 0 0 0 0 0 0 0 0 0 0 0 0 0 0 0 0 0 0 0 0 0 0 0 0 0 0 0 0 0 0 0 0 0
0 0 0 0 0 0 0 0 0 0 0 0 0 0 0 0 0 0 0 0 0 0 0 0 0 0 0 0 0 0 0 0 0 0 0 0 0 0 0 0 0 0 0 0
0 0 0 0 0 0 0 0 0 0 0 0 0 0 0 0 0 0 0 0 0 0 0 0 0 0 0 0 0 0 0 0 0 0 0 0 0 0 0 0 0 0 0 0
0 0 0 0 0 0 0 0 0 0 0 0 0 0 0 0 0 0 0 0 0 0 0 0 0 0 0 0 0 0 0 0 0 0 0 0 0 0 0 0 0 0 0 0
0 0 0 0 0 0 0 0 0 0 0 0 0 0 0 0 0 0 0 0 0 0 0 0 0 0 0 0 0 0 0 0 0 0 0 0 0 0 0 0 0 0 0 0
0 0 0 0 0 0 0 0 0 0 0 0 0 0 0 0 0 0 0 0 0 0 0 0 0 0 0 0 0 0 0 0 0 0 0 0 0 0 0 0 0 0 0 0
0 0 0 0 0 0 0 0 0 0 0 0 0 0 0 0 0 0 0 0 0 0 0 0 0 0 0 0 0 0 0 0 0 0 0 0 0 0 0 0 0 0 0 0
0 0 0 0 0 0 0 0 0 0 0 0 0 0 0 0 0 0 0 0 0 0 0 0 0 0 0 0 0 0 0 0 0 0 0 0 0 0 0 0 0 0 0 0
0 0 0 0 0 0 0 0 0 0 0 0 0 0 0 0 0 0 0 0 0 0 0 0 0 0 0 0 0 0 0 0 0 0 0 0 0 0 0 0 0 0 0 0
0 0 0 0 0 0 0 0 0 0 0 0 0 0 0 0 0 0 0 0 0 0 0 0 0 0 0 0 0 0 0 0 0 0 0 0 0 0 0 0 0 0 0 0
0 0 0 0 0 0 0 0 0 0 0 0 0 0 0 0 0 0 0 0 0 0 0 0 0 0 0 0 0 0 0 0 0 0 0 0 0 0 0 0 0 0 0 0
0 0 0 0 0 0 0 0 0 0 0 0 0 0 0 0 0 0 0 0 0 0 0 0 0 0 0 0 0 0 0 0 0 0 0 0 0 0 0 0 0 0 0 0
0 0 0 0 0 0 0 0 0 0 0 0 0 0 0 0 0 0 0 0 0 0 0 0 0 0 0 0 0 0 0 0 0 0 0 0 0 0 0 0 0 0 0 0
0 0 0 0 0 0 0 0 0 0 0 0 0 0 0 0 0 0 0 0 0 0 0 0 0 0 0 0 0 0 0 0 0 0 0 0 0 0 0 0 0 0 0 0
0 0 0 0 0 0 0 0 0 0 0 0 0 0 0 0 0 0 0 0 0 0 0 0 0 0 0 0 0 0 0 0 0 0 0 0 0 0 0 0 0 0 0 0
0 0 0 0 0 0 0 0 0 0 0 0 0 0 0 0 0 0 0 0 0 0 0 0 0 0 0 0 0 0 0 0 0 0 0 0 0 0 0 0 0 0 0 0
0 0 0 0 0 0 0 0 0 0 0 0 0 0 0 0 0 0 0 0 0 0 0 0 0 0 0 0 0 0 0 0 0 0 0 0 0 0 0 0 0 0 0 0
0 0 0 0 0 0 0 0 0 0 0 0 0 0 0 0 0 0 0 0 0 0 0 0 0 0 0 0 0 0 0 0 0 0 0 0 0 0 0 0 0 0 0 0
0 0 0 0 0 0 0 0 0 0 0 0 0 0 0 0 0 0 0 0 0 0 0 0 0 0 0 0 0 0 0 0 0 0 0 0 0 0 0 0 0 0 0 0
0 0 0 0 0 0 0 0 0 0 0 0 0 0 0 0 0 0 0 0 0 0 0 0 0 0 0 0 0 0 0 0 0 0 0 0 0 0 0 0 0 0 0 0
0 0 0 0 0 0 0 0 0 0 0 0 0 0 0 0 0 0 0 0 0 0 0 0 0 0 0 0 0 0 0 0 0 0 0 0 0 0 0 0 0 0 0 0
0 0 0 0 0 0 0 0 0 0 0 0 0 0 0 0 0 0 0 0 0 0 0 0 0 0 0 0 0 0 0 0 0 0 0 0 0 0 0 0 0 0 0 0
0 0 0 0 0 0 0 0 0 0 0 0 0 0 0 0 0 0 0 0 0 0 0 0 0 0 0 0 0 0 0 0 0 0 0 0 0 0 0 0 0 0 0 0
Wind_Speed
7 6 5 7 7 7 9 8 8 7 7 4 1 1 1 1 2 3 3 4 5 5 5 5 5 6 6 6 6 6 6 6 6 6 6 5 6 5 5 5 6 5 5 5
6 6 6 9 10 9 9 9 10 10 9 2 1 1 1 2 2 3 4 4 5 6 6 6 6 7 7 7 6 6 6 6 7 6 6 6 6 6 6 5 5 5 5 5
4 2 4 9 8 8 6 5 5 8 6 1 2 2 2 2 3 3 3 4 5 6 6 6 6 6 7 7 7 6 7 7 7 6 6 6 6 6 6 6 5 5 5 5
3 3 8 6 1 1 3 4 4 3 2 2 2 2 2 2 2 3 4 5 5 5 6 6 6 6 6 6 6 7 7 7 7 6 6 6 6 6 6 5 5 5 5 5
2 4 8 3 1 1 1 4 1 2 2 2 3 4 3 1 3 4 4 5 5 5 6 6 7 7 6 6 6 6 7 7 7 7 7 7 6 6 6 5 6 5 5 5
3 4 7 2 2 2 1 3 1 1 1 2 3 3 4 3 4 5 5 4 5 5 6 6 6 6 6 6 6 7 7 7 7 7 7 7 7 6 6 5 6 6 6 5
6 6 7 0 1 2 1 4 2 2 2 2 2 3 4 5 5 5 5 5 5 5 6 6 6 6 6 7 7 7 7 7 7 7 7 7 6 5 6 6 5 5 6 5
5 6 7 2 2 2 2 1 2 2 3 3 4 4 5 5 6 5 6 6 6 6 6 6 5 5 7 7 7 6 7 7 7 7 7 7 6 6 5 5 5 5 4 4
5 6 1 2 2 1 2 1 2 2 3 3 4 5 6 6 6 6 6 6 6 6 6 6 5 5 7 7 7 7 7 7 7 7 6 6 5 5 5 4 4 4 4 4
3 3 1 2 1 1 1 1 2 2 2 3 4 5 6 6 6 6 6 6 6 6 6 7 6 6 6 7 7 7 7 7 7 6 6 6 5 5 4 4 4 4 4 4
4 3 1 1 1 0 1 1 1 2 3 3 5 5 6 5 6 6 6 5 5 5 6 7 7 7 7 6 6 7 7 7 7 6 6 5 5 4 5 4 5 6 4 4
4 2 2 2 0 1 1 2 2 3 4 3 4 5 6 5 5 5 6 5 6 6 7 7 7 7 7 6 6 7 7 7 5 5 5 5 5 5 7 8 10 10 9 7
1 1 0 0 1 1 1 2 3 2 3 4 4 4 5 5 5 5 5 6 6 6 7 7 7 7 7 6 6 6 6 7 5 5 5 5 5 5 6 7 9 9 9 9
1 1 1 1 1 1 2 2 2 3 3 3 4 4 4 5 5 6 6 6 6 6 7 7 7 7 7 7 7 7 6 7 7 5 5 5 5 5 5 5 6 5 6 9
1 1 1 1 1 2 2 2 3 3 4 4 4 4 4 5 6 6 6 6 6 6 7 7 7 8 7 7 7 6 6 5 4 4 4 4 4 4 4 5 5 5 5 6
1 1 0 1 1 2 3 3 3 4 4 4 4 4 5 5 5 6 5 5 6 7 7 7 8 7 7 7 7 6 5 9 7 5 4 4 4 4 4 4 4 4 5 5
1 1 1 2 3 3 3 3 4 4 4 4 5 5 5 5 5 6 6 5 5 6 7 7 8 7 7 6 6 5 5 6 9 6 4 4 4 4 4 4 4 4 4 6
2 2 2 2 3 3 4 4 3 4 4 4 5 4 4 5 6 7 7 6 6 7 7 6 7 7 7 7 5 4 4 4 4 4 4 4 4 4 4 4 5 5 5 5
0 1 2 2 2 2 3 3 4 4 4 4 4 4 5 5 5 6 6 6 7 7 7 6 11 8 7 7 7 4 4 5 5 5 4 6 6 4 4 4 4 5 5 5
1 1 1 2 2 2 2 3 3 4 4 3 4 4 5 5 5 6 6 5 5 5 6 8 8 6 6 6 8 4 4 5 5 5 4 4 4 4 4 5 5 4 4 4
1 1 2 2 2 3 2 3 3 3 4 3 3 4 5 6 5 5 5 6 5 6 6 10 6 5 6 7 8 4 4 4 4 4 4 4 4 4 4 5 5 5 5 5
1 1 2 2 2 3 3 2 2 3 3 3 4 4 5 5 5 5 4 4 5 9 7 5 5 8 10 10 4 4 4 4 4 4 4 4 4 4 5 5 5 5 4 4
1 1 1 2 2 3 3 2 2 2 3 3 4 4 4 5 4 4 5 4 4 9 7 5 9 13 14 7 4 4 4 4 4 4 4 4 4 4 4 5 4 4 4 4
1 1 2 2 2 2 3 3 3 2 3 3 3 4 4 4 4 3 3 8 11 11 6 9 14 14 12 5 4 4 4 4 4 4 4 4 4 4 4 4 4 4 4 5
1 1 1 2 2 2 2 3 3 3 3 3 3 3 3 2 3 4 4 5 10 10 6 9 14 13 7 4 4 4 4 4 5 5 4 4 4 4 4 4 4 4 4 4
1 2 2 2 2 2 2 2 2 2 3 3 3 3 3 3 3 4 4 5 7 9 6 5 6 7 5 5 5 5 5 5 6 5 5 5 5 5 4 4 5 4 4 4
1 1 1 1 1 2 2 2 2 3 3 3 4 3 3 3 3 4 5 5 5 5 5 4 4 4 4 5 5 5 5 5 4 5 4 4 4 4 4 5 4 4 4 4
Wind_Direction
275 286 279 268 258 235 230 236 247 266 277 281 283 277 314 333 347 341 329 332 338 335 331 333 334 331 327 327 326 323 320 318 314 311 307 305 308 307 305 302 299 297 296 291
278 262 266 269 258 243 240 244 255 273 281 304 350 354 338 334 332 318 318 329 334 333 331 329 329 327 324 322 321 319 313 310 311 311 312 310 309 306 304 301 297 296 295 292
270 282 301 264 240 223 227 229 238 255 265 341 339 345 328 310 303 302 322 333 330 325 323 321 322 323 318 315 319 318 313 313 314 314 311 309 309 308 304 302 300 295 294 294
275 307 249 245 56 159 224 249 244 255 315 356 349 341 327 320 332 339 337 328 322 320 320 320 320 317 313 315 318 317 315 316 319 318 312 308 306 304 303 301 299 297 293 290
235 258 269 257 136 109 205 275 232 232 291 343 13 348 318 5 11 344 330 320 314 316 314 314 314 315 315 315 315 316 316 317 318 317 312 308 304 300 300 300 298 293 290 288
225 244 256 256 100 45 52 272 7 44 310 342 5 311 293 344 343 332 326 319 316 316 314 311 312 316 314 312 313 313 313 312 313 311 306 301 298 298 298 293 291 293 289 281
231 243 260 190 130 94 188 252 7 26 351 331 289 267 303 330 325 319 318 318 320 316 309 309 316 322 314 308 307 309 311 310 308 306 304 300 297 297 296 295 294 290 287 283
204 228 249 123 129 178 220 32 26 10 1 337 318 318 317 317 316 320 319 318 318 313 309 314 319 319 311 307 306 308 308 306 305 305 304 306 303 302 299 298 296 294 290 289
200 218 224 133 138 119 64 32 0 355 348 333 314 309 311 313 315 315 315 314 314 310 310 313 316 314 308 308 313 311 307 305 304 304 301 301 299 299 299 296 294 297 296 296
262 254 232 172 117 57 39 343 341 343 333 325 307 308 311 312 314 315 315 314 316 317 313 312 316 315 310 312 314 313 309 305 303 302 302 301 299 296 296 295 293 295 296 297
251 260 308 229 188 52 344 341 334 325 323 316 310 306 307 307 309 309 312 314 317 313 309 310 316 315 316 318 318 312 309 307 306 303 300 297 296 293 295 283 288 294 287 286
231 216 208 242 153 34 338 325 313 308 311 315 310 303 307 306 308 310 309 313 313 311 310 313 315 314 316 318 316 312 310 309 307 305 302 302 301 304 303 303 307 305 302 298
230 19 46 265 10 28 336 317 316 311 303 305 306 302 305 305 308 309 311 314 312 312 311 311 313 313 316 318 315 308 303 304 304 305 304 303 303 305 310 315 313 312 311 309
41 57 296 286 314 340 329 320 323 315 306 302 306 310 309 307 309 312 311 311 311 311 308 310 312 313 316 317 313 309 303 301 302 300 300 299 299 300 303 308 314 315 312 312
7 345 249 307 351 344 338 332 325 317 318 318 317 316 314 310 307 307 309 313 314 312 313 316 316 315 320 320 316 310 307 304 301 298 298 297 299 300 300 301 304 309 314 316
331 351 327 318 317 322 326 322 311 307 314 313 315 315 312 306 303 305 310 316 317 316 317 316 313 315 321 322 318 313 309 311 312 306 300 300 300 300 301 301 302 303 307 311
176 259 273 289 294 299 300 298 294 298 306 308 308 312 314 313 311 312 314 315 311 306 309 310 312 317 320 319 315 312 311 311 313 310 303 301 300 300 298 297 297 298 299 304
220 241 248 254 270 287 298 303 303 307 305 305 311 315 314 313 309 310 313 317 317 315 313 314 318 321 319 319 316 311 310 306 305 302 301 301 300 295 294 295 297 297 301 305
289 279 285 292 292 291 295 304 309 309 308 309 311 308 304 302 303 307 314 320 320 316 318 325 328 329 323 321 323 313 311 309 305 304 302 305 308 306 302 298 297 297 300 303
320 313 310 313 318 305 297 302 306 307 309 312 313 313 312 309 310 312 312 305 296 297 309 321 323 322 321 318 321 311 307 305 304 302 304 305 307 307 306 307 308 306 304 303
307 310 312 314 312 305 292 293 299 304 311 316 310 306 306 309 310 310 310 310 315 322 325 328 330 323 318 317 320 317 313 311 313 314 313 311 309 308 308 309 309 309 308 308
288 292 299 301 303 308 309 304 298 302 311 314 312 309 311 312 314 309 296 290 307 325 331 323 320 321 324 327 326 323 320 321 320 318 317 315 312 311 310 311 310 310 311 312
278 281 292 294 293 298 308 308 302 304 307 307 309 311 309 307 310 312 313 319 323 326 329 320 322 326 331 339 335 329 326 324 321 319 317 314 312 311 311 312 311 312 313 313
310 312 302 300 302 306 310 311 311 306 300 297 296 296 300 308 309 302 298 318 326 327 327 323 329 332 339 346 334 328 325 322 318 316 314 311 311 311 310 309 310 311 310 311
312 299 294 303 304 298 300 308 312 307 307 306 306 307 304 297 300 311 315 317 323 329 327 328 332 337 343 334 330 328 326 324 322 322 322 322 320 317 314 312 309 308 308 307
305 301 296 288 286 294 303 311 313 313 317 318 319 321 322 319 314 315 317 318 320 327 330 324 326 331 333 330 329 328 325 325 329 332 327 323 320 317 315 316 316 311 305 302
310 311 320 329 330 330 325 319 314 317 322 320 317 321 325 325 324 325 325 324 325 326 324 324 326 327 328 328 327 325 323 323 324 323 323 322 321 318 316 314 312 312 309 304